Hourly Data Report for February 27, 2004

TORONTO CITY
ONTARIO

43°40'00.000" N
79°24'00.000" W
112.50 m
6158355
71508
XTO

Download Data

Hourly Data (February 2004)
Hourly Data Report for February 27, 2004
TIME
LST
Temp Definition
°C
Dew Point Definition
°C
Rel Hum Definition
%
Precip. Amount Definition
mm

Wind Dir Definition
10's deg

Wind Spd Definition
km/h
Visibility Definition
km
Stn Press Definition
kPa
Hmdx Definition


Wind Chill Definition


Weather Definition


00:00 -1.3 -5.8 71   LegendMM LegendMM LegendMM 101.76     LegendNANA
01:00 -1.2 -5.9 70   LegendMM LegendMM LegendMM 101.78     LegendNANA
02:00 -1.2 -6.1 69   LegendMM LegendMM LegendMM 101.78     LegendNANA
03:00 -1.8 -5.6 75   LegendMM LegendMM LegendMM 101.77     LegendNANA
04:00 -2.3 -5.8 77   LegendMM LegendMM LegendMM 101.77     LegendNANA
05:00 -2.2 -7.6 66   LegendMM LegendMM LegendMM 101.80     LegendNANA
06:00 -2.4 -12.0 48   LegendMM LegendMM LegendMM 101.81     LegendNANA
07:00 -2.1 -11.2 50   LegendMM LegendMM LegendMM 101.82     LegendNANA
08:00 -1.3 -8.9 56   LegendMM LegendMM LegendMM 101.86     LegendNANA
09:00 1.2 -9.0 46   LegendMM LegendMM LegendMM 101.87     LegendNANA
10:00 2.3 -8.2 46   LegendMM LegendMM LegendMM 101.87     LegendNANA
11:00 4.1 -9.4 37   LegendMM LegendMM LegendMM 101.85     LegendNANA
12:00 4.6 -7.3 42   LegendMM LegendMM LegendMM 101.84     LegendNANA
13:00 4.2 -6.5 46   LegendMM LegendMM LegendMM 101.79     LegendNANA
14:00 4.3 -5.6 49   LegendMM LegendMM LegendMM 101.74     LegendNANA
15:00 3.4 -4.9 54   LegendMM LegendMM LegendMM 101.72     LegendNANA
16:00 2.5 -4.8 59   LegendMM LegendMM LegendMM 101.75     LegendNANA
17:00 2.5 -3.1 67   LegendMM LegendMM LegendMM 101.72     LegendNANA
18:00 1.7 -2.7 73   LegendMM LegendMM LegendMM 101.70     LegendNANA
19:00 0.9 -2.9 76   LegendMM LegendMM LegendMM 101.72     LegendNANA
20:00 0.8 -2.5 79   LegendMM LegendMM LegendMM 101.73     LegendNANA
21:00 2.5 -7.5 48   LegendMM LegendMM LegendMM 101.72     LegendNANA
22:00 1.7 -6.2 56   LegendMM LegendMM LegendMM 101.73     LegendNANA
23:00 0.9 -5.4 63   LegendMM LegendMM LegendMM 101.72     LegendNANA

Notes on Data Quality.

Legend

  • E = Estimated
  • M = Missing
  • NA = Not Available*
  • [empty] = Indicates an unobserved value
Date modified: